EDT,Max TemperatureF,Mean TemperatureF,Min TemperatureF,Max Dew PointF,MeanDew PointF,Min DewpointF,Max Humidity, Mean Humidity, Min Humidity, Max Sea Level PressureIn, Mean Sea Level PressureIn, Min Sea Level PressureIn, Max VisibilityMiles, Mean VisibilityMiles, Min VisibilityMiles, Max Wind SpeedMPH, Mean Wind SpeedMPH, Max Gust SpeedMPH,PrecipitationIn, CloudCover, Events, WindDirDegrees
2013-10-1,78,58,39,58,47,40,100,87,40,30.01,29.96,29.88,10,5,0,12,1,17,0.00,2,Fog,315
2013-10-2,77,62,46,57,53,47,100,80,48,29.99,29.92,29.88,10,6,0,15,2,23,0.01,3,Fog,276
2013-10-3,75,58,42,54,47,41,100,84,29,30.12,30.07,30.00,10,6,0,9,1,,0.00,1,Fog,226
2013-10-4,63,55,48,56,53,47,97,89,75,30.11,30.08,30.05,10,9,1,6,1,,0.31,7,Rain,358
2013-10-5,68,62,57,60,56,54,96,83,63,30.13,30.09,30.07,10,10,7,5,1,,0.03,8,Rain,4
2013-10-6,60,56,51,58,54,50,100,94,88,30.22,30.15,30.11,10,5,2,10,1,,0.56,8,Rain,67
2013-10-7,75,63,53,66,59,52,100,91,71,30.12,29.92,29.77,10,6,1,25,4,38,1.10,8,Rain,201
2013-10-8,64,52,39,52,42,34,97,74,34,30.39,30.18,29.93,10,10,2,14,3,23,0.01,0,,353
2013-10-9,64,48,33,45,36,32,100,86,37,30.49,30.42,30.37,10,6,0,7,1,,0.00,1,Fog,65
2013-10-10,59,47,35,49,39,34,100,91,58,30.38,30.32,30.20,10,6,0,5,0,,0.00,2,Fog,332
2013-10-11,73,56,39,48,41,20,100,86,14,30.19,30.16,30.10,10,6,0,8,0,,0.00,1,Fog,28
2013-10-12,57,48,39,53,46,38,100,91,80,30.40,30.29,30.17,10,8,1,9,2,,0.00,4,,47
2013-10-13,57,50,42,47,45,42,100,81,62,30.45,30.42,30.38,10,10,3,7,3,,0.00,6,,62
2013-10-14,66,52,39,51,44,38,100,88,50,30.40,30.35,30.25,10,5,0,8,0,,0.00,5,Fog,170
2013-10-15,68,58,50,54,51,48,93,79,59,30.27,30.23,30.17,10,10,9,7,1,,0.00,7,,93
2013-10-16,61,52,44,52,48,43,100,86,63,30.15,30.04,29.92,10,9,1,6,0,,0.00,3,,190
2013-10-17,73,60,48,55,51,45,97,82,38,29.91,29.82,29.70,10,9,4,9,1,,0.05,5,Rain,253
2013-10-18,64,52,39,61,48,38,96,75,46,29.93,29.76,29.60,10,10,5,17,9,26,0.14,3,Rain,252
2013-10-19,64,48,34,46,39,32,97,72,40,29.99,29.90,29.74,10,10,5,10,2,,0.00,2,Rain,187
2013-10-20,57,46,34,50,40,29,100,79,33,30.04,29.81,29.70,10,7,0,18,3,25,0.01,3,Fog,297
2013-10-21,64,48,32,42,37,30,97,71,35,30.13,30.06,29.98,10,9,2,13,2,,0.00,1,,197
2013-10-22,60,52,37,50,44,35,97,77,64,29.96,29.82,29.73,10,10,9,17,6,22,0.01,3,Rain,216
2013-10-23,51,41,32,37,33,28,97,77,43,29.81,29.71,29.60,10,10,8,4,1,,0.00,3,,269
2013-10-24,51,39,28,35,27,21,96,61,32,29.91,29.80,29.68,10,10,10,17,6,24,0.00,3,,259
2013-10-25,48,38,27,32,27,24,96,69,38,30.17,30.05,29.92,10,10,10,14,6,21,0.00,3,,296
2013-10-26,52,38,24,33,26,22,92,62,35,30.17,30.03,29.87,10,10,8,18,4,31,0.00,3,,202
2013-10-27,52,42,33,33,29,26,85,56,39,30.08,29.91,29.80,10,10,10,15,8,24,0.00,5,,249
2013-10-28,55,40,25,31,27,23,96,69,40,30.37,30.18,30.09,10,10,10,17,3,24,0.00,1,,291
2013-10-29,48,34,21,25,21,17,96,68,30,30.48,30.41,30.38,10,10,10,8,1,16,0.00,0,,9
2013-10-30,53,40,26,37,30,22,96,80,52,30.36,30.28,30.21,10,9,2,10,1,,0.00,3,,247
2013-10-31,59,44,28,57,43,27,100,96,90,30.26,30.06,29.78,10,3,0,18,2,29,0.43,7,Fog-Rain,193